Location: ?
(35.3436°N, 139.3168°E)
Time: 07:53:48
(UTC+00:00)

Meteor 2-5 Rocket - Pass Details

Date: 29 October 2020
Orbit: 833 x 911 km, 81.2° (Epoch: 02 December)

Event Time Altitude Azimuth Distance (km) Brightness Sun altitude
Rises 19:33:17 0° 208° (SSW) 3,413 6.6 -18.7°
Reaches altitude 10° 19:35:50 10° 216° (SW) 2,492 5.8 -18.1°
Maximum altitude 19:41:04 38° 284° (WNW) 1,302 4.2 -17.1°
Drops below altitude 10° 19:46:28 10° 352° (N) 2,556 6.1 -16.0°
Sets 19:49:08 0° 0° (N) 3,511 6.9 -15.4°
